{"data":{"norad_id":66104,"intl_designator":"2025-236U","name":"STARLINK-35452","alt_names":[],"object_type":"PAYLOAD","status":"ACTIVE","operator":null,"country":"US","launch_date":"2025-10-19","launch_site_code":"AFWTR","launch_vehicle":null,"mission":null,"orbit_class":"UNKNOWN","rcs_meters":null,"size_class":null,"mass_kg":null,"dimensions":null,"purposes":["comms"],"wikipedia_slug":null,"has_3d_model":false,"image_url":null,"decayed_at":null,"tle_current":{"epoch":"2026-05-25T04:00:03.998880Z","epoch_age_seconds":64686,"freshness":"FRESH","line1":"1 66104U 25236U   26145.16671295 -.00001922  00000+0 -45794-4 0  9998","line2":"2 66104  53.1598 108.6548 0001135  92.1839 260.4777 15.34379458  5854","mean_motion":15.34379458,"eccentricity":0.0001135,"inclination_deg":53.1598,"raan_deg":108.6548,"arg_perigee_deg":92.1839,"mean_anomaly_deg":260.4777,"bstar":-4.5794e-5,"rev_number":585,"period_min":93.849014498472,"perigee_km":461.9878537442,"apogee_km":463.5407383384,"semimajor_km":6840.9012960413,"source":"CELESTRAK","updated_at":"2026-05-25T13:38:21.030644Z"}}}